Hourly Data Report for October 14, 2013

All times are specified in Local Standard Time (LST). Add 1 hour to adjust for Daylight Saving Time where and when it is observed.

KAMLOOPS A
BRITISH COLUMBIA

50°42'09.000" N
120°26'55.000" W
345.30 m
1163781
71887
YKA

Download Data

Hourly Data (October 2013)
Hourly Data Report for October 14, 2013
Temp Definition
°C
Dew Point Temp Definition
°C
Rel Hum Definition
%
Wind Dir Definition
10's deg

Wind Spd Definition
km/h
Visibility Definition
km
Stn Press Definition
kPa
Hmdx Definition


Wind Chill Definition


Weather Definition


TIME
00:00 Legend Double Dagger 2.0 -2.0 75 12 3 64.4 98.89     LegendNANA
01:00 Legend Double Dagger 2.2 -2.0 74 7 3 64.4 98.93     Clear
02:00 Legend Double Dagger 1.1 -3.2 73 6 1 64.4 98.97     LegendNANA
03:00 Legend Double Dagger 0.4 -2.3 82 8 5 64.4 98.99     LegendNANA
04:00 Legend Double Dagger -1.3 -3.5 85 7 6 64.4 99.03   -4 Clear
05:00 Legend Double Dagger -0.8 -3.3 83 6 4 64.4 99.07   -2 LegendNANA
06:00 Legend Double Dagger -1.6 -3.6 86 9 4 64.4 99.11   -3 LegendNANA
07:00 Legend Double Dagger -0.7 -2.4 88 11 4 64.4 99.17   -2 Clear
08:00 Legend Double Dagger 2.2 -1.2 78 10 4 48.3 99.22     LegendNANA
09:00 Legend Double Dagger 4.1 -0.7 71 12 4 48.3 99.23     LegendNANA
10:00 Legend Double Dagger 5.9 -0.4 64 15 4 64.4 99.20     Clear
11:00 Legend Double Dagger 7.6 -0.9 55 18 8 64.4 99.14     LegendNANA
12:00 Legend Double Dagger 9.1 -0.5 51 19 6 64.4 99.07     LegendNANA
13:00 Legend Double Dagger 10.6 -0.5 46 19 9 64.4 98.98     Mainly Clear
14:00 Legend Double Dagger 12.0 -0.8 41 14 3 64.4 98.91     LegendNANA
15:00 Legend Double Dagger 12.8 0.6 43 14 4 64.4 98.87     LegendNANA
16:00 Legend Double Dagger 12.9 0.4 42 17 5 64.4 98.84     Mainly Clear
17:00 Legend Double Dagger 9.4 2.3 61 29 5 64.4 98.83     LegendNANA
18:00 Legend Double Dagger 7.4 2.5 71 26 3 64.4 98.85     LegendNANA
19:00 Legend Double Dagger 7.1 1.6 68 17 4 64.4 98.85     Mainly Clear
20:00 Legend Double Dagger 6.4 -0.3 62 9 6 64.4 98.89     LegendNANA
21:00 Legend Double Dagger 5.8 0.6 69 11 8 64.4 98.91     LegendNANA
22:00 Legend Double Dagger 5.2 0.0 69 6 3 64.4 98.95     Mainly Clear
23:00 Legend Double Dagger 4.4 0.4 75 10 4 64.4 98.95     LegendNANA

Notes on Data Quality.

Legend

  • E = Estimated
  • M = Missing
  • NA = Not Available
  • ‡ = Partner data that is not subject to review by the National Climate Archives
Date modified: